Regional Weather Roundup
Issued by NWS

Home | Current Version | Previous Version | Graphics & Text | Print | Product List | Glossary On
Versions: 1 2 3 4 5 6 7 8 9 10 11 12 13 14 15 16 17 18 19 20 21 22 23 24 25 26 27 28 29 30 31 32 33 34 35 36 37 38 39 40 41 42 43 44 45 46 47 48 49 50
000
ASUS43 KLOT 050508
RWRIL

ILLINOIS REGIONAL WEATHER ROUNDUP
NATIONAL WEATHER SERVICE CHICAGO/ROMEOVILLE IL
1200 AM CDT THU MAY 05 2016

NOTE: "FAIR" INDICATES FEW OR NO CLOUDS BELOW 12,000 FEET WITH NO
SIGNIFICANT WEATHER AND/OR OBSTRUCTIONS TO VISIBILITY.

* THESE STATIONS ARE NOT UNDER NWS QUALITY CONTROL. THEY ALSO MAY NOT
  REPORT WEATHER SUCH AS PRECIPITATION OR FOG.

ILZ001-002-007-009-015-016-024-050600-
NORTHWEST ILLINOIS

CITY           SKY/WX    TMP DP  RH WIND       PRES   REMARKS
MOLINE         CLEAR     53  32  44 NE8       29.91R
STERLING*      CLEAR     45  39  81 NE6       29.93R
SAVANNA*       CLEAR     47  34  59 N5        29.93R
$$

ILZ003-004-008-010-011-017-018-050600-
NORTH CENTRAL ILLINOIS

CITY           SKY/WX    TMP DP  RH WIND       PRES   REMARKS
ROCKFORD       CLEAR     42  36  79 CALM      29.94R
FREEPORT*      CLEAR     41  36  82 E5        29.95R
ROCHELLE*      CLEAR     40  36  84 NE7       29.92R
DE KALB*       CLEAR     40  36  83 N10       29.91S
$$

ILZ005-006-012>014-019>023-050600-
NORTHEAST ILLINOIS

CITY           SKY/WX    TMP DP  RH WIND       PRES   REMARKS
CHICAGO-OHARE  MOCLDY    42  34  73 N14       29.88S
CHICAGO-MIDWAY CLOUDY    44  33  65 N17G26    29.87F
AURORA         PTCLDY    42  35  76 N8        29.90S
LANSING*       CLOUDY    43  34  70 N18G28    29.85S
JOLIET*        PTCLDY    44  36  74 N6        29.89R
WAUKEGAN       CLOUDY    42  34  73 N14G22    29.89S
DUPAGE AIRPORT PTCLDY    40  33  76 N9        29.89S
KANKAKEE*      CLOUDY    45  34  66 N14       29.86F
WHEELING       CLOUDY    43  34  70 N12G22    29.90S
MORRIS*        MOCLDY    42  36  78 CALM      29.88F
ROMEOVILLE*    PTCLDY    42  34  72 N14       29.88S
NORTHERLY ISL    N/A     43  34  70 MISG        N/A
NORTHERLY ISL    N/A     43  34  70 MISG        N/A
$$

LMZ740>746-050600-
SOUTHERN LAKE MICHIGAN

STATION/POSITION SKY/WX   TEMP    WIND        PRES    VSBY  WAVE
                          AIR SEA DIR/SP/G                  HT/PER
                          (F)     (DEG/KT/KT) (MB)    (MI)  (FT/S)
SOUTHERN BUOY              40 40   10/ 27/ 35 1010.2F        10/ 8
WILMETTE HARBOR            42 43   30/ 23/ 29   N/A           8/ 7
HARRISON CRIB              44     360/ 28/ 34   N/A
BURNHAM HARBOR             43     340/ 22/ 24   N/A
CALUMET HARBOR             43     340/ 19/ 30 1010.8F
BURNS HARBOR               44     360/ 29     1010.2F
MICHIGAN CITY              41     340/ 34/ 37   N/A
ST. JOSEPH                 42 47                N/A          10/ 8
$$

ILZ025>027-034>036-040-047-049-050-058-095>099-050600-
WEST-CENTRAL ILLINOIS

CITY           SKY/WX    TMP DP  RH WIND       PRES   REMARKS
QUINCY         PTCLDY    48  38  68 NW6       29.91S
GALESBURG*     CLEAR     49  35  58 N10       29.89S
MACOMB*        PTCLDY    46  37  69 NW7       29.92S
JACKSONVILLE*  CLEAR     48  37  64 W7        29.88S
PITTSFIELD*    CLEAR     50  40  67 NW5       29.91S
$$

ILZ028>032-037-038-041>044-048-051>054-059>061-050600-
CENTRAL ILLINOIS

CITY           SKY/WX    TMP DP  RH WIND       PRES   REMARKS
PONTIAC        CLEAR     43  39  86 NE6       29.90S
BLOOMINGTON    CLEAR     44  42  93 NE13      29.89R
DECATUR        CLEAR     49  41  74 NW5       29.85S
PEORIA         CLEAR     49  35  58 N5        29.88R
LACON*         CLEAR     46  39  77 E15       29.90R
LINCOLN*       CLEAR     49  39  69 CALM      29.86R
SPRINGFIELD    CLEAR     50  37  61 W7        29.87S
TAYLORVILLE    CLEAR     46  41  81 SW7       29.85F
$$

ILZ033-039-045-046-055>057-062-063-050600-
EAST-CENTRAL ILLINOIS

CITY           SKY/WX    TMP DP  RH WIND       PRES   REMARKS
CHAMPAIGN      MOCLDY    47  40  76 NE13      29.85R
RANTOUL*       CLOUDY    46  40  77 N9        29.86S
MATTOON        MOCLDY    48  42  80 W7        29.82F
PARIS*         CLOUDY    47  40  76 N8        29.85R
$$

ILZ079-100>102-050600-
SOUTHWEST ILLINOIS

CITY           SKY/WX    TMP DP  RH WIND       PRES   REMARKS
ALTON          PTCLDY    49  40  71 NW6       29.89S
BELLEVILLE     PTCLDY    50  43  77 N3        29.87S
CAHOKIA*       CLOUDY    56  37  49 W6        29.89S
SPARTA*        PTCLDY    48  42  79 CALM      29.90S
$$

ILZ064>066-069>071-074>076-080>082-084>086-088>090-092>094-050600-
SOUTH-CENTRAL ILLINOIS

CITY           SKY/WX    TMP DP  RH WIND       PRES   REMARKS
CARBONDALE     PTCLDY    49  42  77 W5        29.88F
CAIRO*         PTCLDY    50  43  77 CALM      29.89S
EFFINGHAM*     CLEAR     46  46  99 CALM      29.85F
MARION         MOCLDY    50  46  87 CALM      29.89S
MT. VERNON     PTCLDY    45  37  76 CALM      29.87S
CENTRALIA*     PTCLDY    48  45  90 W7        29.85F
SALEM*         PTCLDY    47  44  87 CALM      29.86S
METROPOLIS*    MOCLDY    49  44  83 CALM      29.89S
$$

ILZ067-068-072-073-078-083-087-091-050600-
SOUTHEAST ILLINOIS

CITY           SKY/WX    TMP DP  RH WIND       PRES   REMARKS
LAWRENCEVILLE  CLOUDY    51  45  79 W6        29.82F
FLORA*         PTCLDY    50  44  78 W6        29.85S
FAIRFIELD*     PTCLDY    50  43  77 CALM      29.84S
HARRISBURG*    CLEAR     46  44  93 CALM      29.87F
ROBINSON*      CLOUDY    48  45  89 NW3       29.84R
CARMI*         CLOUDY    50  46  87 SW5       29.85S
$$

ABBREVIATIONS USED IN REMARKS
   TC - TEMPERATURE IN CELSIUS
  WCI - WIND CHILL INDEX
   HX - HEAT INDEX
  VSB - VISIBILITY
$$




USA.gov is the U.S. government's official web portal to all federal, state and local government web resources and services.